User: anonymous   Login
Location: Unspecified
(0.0000°N, 0.0000°E)
Time: 01:42:21
(UTC+00:00)
Language:

Tiros 1 despin weight - Orbit

View from above orbital plane
View from above orbital plane
View from above satellite
View from above satellite

Ground track
Ground track

The orbit data is extracted from the following two-line orbital elements,

1   115U 60002D   18048.81629181 +.00000028 +00000-0 +30713-4 0  9990
2   115 048.1671 043.5651 0033739 100.8617 259.6095 14.83237641065521
Epoch (UTC): 17 February 2018 19:35:27
Eccentricity: 0.0033739
inclination: 48.1671°
perigee height: 595 km
apogee height: 643 km
right ascension of ascending node: 43.5651°
argument of perigee: 100.8617°
revolutions per day: 14.83237641
mean anomaly at epoch: 259.6095°
orbit number at epoch: 6552

The dashed part of the orbit path shows where the satellite is in the earth's shadow,  

DLR